Regional Weather Roundup
Issued by NWS Cleveland, OH

Home | Current Version | Previous Version | Graphics & Text | Print | Product List | Glossary On
Versions: 1 2 3 4 5 6 7 8 9 10 11 12 13 14 15 16 17 18 19 20 21 22 23 24 25 26 27 28 29 30 31 32 33 34 35 36 37 38 39 40 41 42 43 44 45 46 47 48 49 50
427
ASUS41 KCLE 181210
RWRCLE
OHIO REGIONAL WEATHER ROUNDUP
NATIONAL WEATHER SERVICE WILMINGTON, OH
700 AM EST THU JAN 18 2018

NOTE: "FAIR" INDICATES FEW OR NO CLOUDS BELOW 12,000 FEET WITH NO
SIGNIFICANT WEATHER AND/OR OBSTRUCTIONS TO VISIBILITY.

OHZ001>008-015>018-024>027-034-035-043-044-181300-
   NORTHWEST OHIO

CITY           SKY/WX    TMP DP  RH WIND       PRES   REMARKS
DEFIANCE       FAIR      14   6  70 SW12      30.16S WCI   0
FINDLAY        FAIR      16   5  62 SW16G28   30.16S WCI   1
TOLEDO EXPRESS FAIR      14   8  77 SW16      30.14R WCI  -2
TOLEDO EXEC    FAIR      15   7  70 SW15      30.16R WCI   0
LIMA           FAIR      12   6  77 SW17      30.19F WCI  -5
$$

OHZ009>014-019>023-028>033-038-089-181300-
   NORTHEAST OHIO

CITY           SKY/WX    TMP DP  RH WIND       PRES   REMARKS
CLE-HOPKINS    FAIR      15   5  64 SW12      30.19S WCI   2
CLE-LAKEFRONT  FAIR      16   5  62 SW15      30.17S WCI   1
CUY CO. ARPT   CLEAR     18   5  57 SW12G17   30.15  WCI   5
LORAIN-ELYRIA  FAIR      13   2  61 SW14      30.17S WCI  -2
ASHTABULA      FAIR       8   3  80 S9        30.14S WCI  -5
AKRON-CANTON   FAIR      10   3  73 SW13      30.15F WCI  -5
WOOSTER        FAIR      10   4  76 SW10      30.16S WCI  -4
MANSFIELD      FAIR      14   4  64 SW21G32   30.14F WCI  -4
YOUNGSTOWN     FAIR       9   3  77 SW8       30.15S WCI  -3
$$

OHZ042-051>053-060>062-070>072-077>081-181300-
  SOUTHWEST OHIO

CITY           SKY/WX    TMP DP  RH WIND       PRES   REMARKS
CINC-COVINGTON FAIR      10   7  87 SW9       30.35F WCI  -3
CINC-LUNKEN    FAIR      10   6  84 S12       30.41F WCI  -5
HAMILTON       FAIR      13   7  77 SW9       30.37F WCI   1
DAYTON         FAIR       9   6  88 SW14      30.28F WCI  -7
WRIGHT-PAT AFB CLEAR     12   3  67 SW13      30.30F WCI  -3
DAYTON GENERAL FAIR      12   6  77 SW12      30.30F WCI  -2
WILMINGTON     FAIR       8   5  87 SW15      30.30F WCI  -9
$$

OHZ036-037-039>041-045>050-054>059-063>069-073>076-082>088-181300-
  CENTRAL AND SOUTHEAST OHIO

CITY           SKY/WX    TMP DP  RH WIND       PRES   REMARKS
COLUMBUS       FAIR       9   5  84 S8        30.30F WCI  -3
OSU AIRPORT    FAIR      11   6  81 S12       30.27F WCI  -3
BOLTON FIELD   FAIR       7   3  85 SW9       30.29F WCI  -7
RICKENBACK AFB FAIR       9   5  84 S14       30.31F WCI  -8
NEWARK         FAIR      11   5  77 SW10      30.27F WCI  -3
MARION         FAIR      11   4  73 SW12      30.20F WCI  -3
LANCASTER      FAIR      11   5  77 SW12      30.31S WCI  -3
ZANESVILLE     FAIR       9   4  80 SW10      30.29S WCI  -5
NEW PHILLY     FAIR       9   4  80 S8        30.25S WCI  -3
$$




USA.gov is the U.S. government's official web portal to all federal, state and local government web resources and services.